Flag for Lithuania Weather past 2 weeks in Kaunas, Lithuania

Now
64 °F

Partly sunny.


Feels Like: 64 °F
Forecast: 49 / 73 °F
Wind: 14 mph from West

Location: Kaunas

Current Time: Aug 29, 2015 at 1:16:15 PM

Latest Report: Aug 29, 2015 at 12:50 PM


Visibility: N/A

Pressure: 30.15 "Hg

Humidity: 78%

Dew point: 57 °F

Location of KaunasLocation

Historic Weather in Kaunas — Graph

°F

Kaunas temperature yesterday

Maximum temperature yesterday: 79 °F (at 11:50 AM)
Minimum temperature yesterday: 59 °F (at 11:20 PM)
Average temperature yesterday: 68 °F

Past Weeks' High & Low Weather Summary

 TemperatureHumidityPressure
High88 °F (Aug 25, 2:50 PM)100% (Aug 26, 1:00 AM)30.42 "Hg (Aug 26, 1:00 AM)
Low43 °F (Aug 20, 5:50 AM)24% (Aug 15, 5:50 PM)29.83 "Hg (Aug 28, 9:20 AM)
Average65 °F59%30.13 "Hg
* Reported Aug 14 11:20 AM — Aug 29 11:50 AM, Kaunas, Weather by CustomWeather, © 2015

Note: Actual official high and low records may vary slightly from our data, if they occured in-between our weather recording intervals... More about our weather records

Advertising

Kaunas weather history for previous 24 hours

 ConditionsComfort  
Time TempWeatherWind HumidityBarometerVisibility
11:50 AM
Sat, Aug 29
64 °FBroken clouds.15 mph68%30.15 "HgN/A
10:50 AM63 °FBroken clouds.14 mph83%30.15 "HgN/A
10:20 AM61 °FOvercast.14 mph83%30.15 "HgN/A
9:50 AM61 °FLow clouds.12 mph88%30.12 "HgN/A
8:50 AM57 °FLow clouds.10 mph94%30.12 "HgN/A
8:20 AM55 °FLow clouds.8 mph100%30.12 "HgN/A
7:50 AM55 °FLow clouds.9 mph94%30.09 "HgN/A
7:20 AM55 °FLow clouds.9 mph94%30.09 "HgN/A
6:50 AM55 °FLow clouds.5 mph94%30.09 "HgN/A
6:20 AM54 °FPassing clouds.3 mph100%30.09 "HgN/A
5:50 AM54 °FPassing clouds.5 mph94%30.09 "HgN/A
5:20 AM54 °FPassing clouds.5 mph94%30.09 "HgN/A
4:50 AM54 °FPassing clouds.5 mph94%30.07 "HgN/A
4:20 AM54 °FPassing clouds.3 mph100%30.07 "HgN/A
3:50 AM54 °FPassing clouds.3 mph100%30.07 "HgN/A
11:50 PM
Fri, Aug 28
59 °FClear.8 mph88%30.01 "Hg10 mi
11:20 PM59 °FClear.8 mph88%30.01 "Hg10 mi
10:50 PM61 °FClear.9 mph83%30.01 "Hg10 mi
10:20 PM61 °FClear.7 mph83%30.01 "Hg10 mi
9:50 PM61 °FPassing clouds.7 mph83%30.01 "HgN/A
9:20 PM63 °FSunny.7 mph83%29.98 "Hg10 mi
8:50 PM63 °FSunny.8 mph83%29.98 "Hg10 mi
8:20 PM64 °FPassing clouds.9 mph78%29.98 "HgN/A
7:50 PM64 °FBroken clouds.13 mph83%29.98 "HgN/A
7:20 PM64 °FScattered clouds.13 mph83%29.95 "HgN/A
6:50 PM64 °FScattered showers. Broken clouds.9 mph88%29.95 "HgN/A
6:20 PM66 °FSprinkles. More clouds than sun.16 mph83%29.95 "HgN/A
5:50 PM66 °FBroken clouds.12 mph83%29.95 "HgN/A
5:20 PM66 °FLight rain. Mostly cloudy.16 mph83%29.95 "Hg6 mi
4:50 PM68 °FMostly cloudy.14 mph78%29.92 "HgN/A
4:20 PM70 °FSprinkles. More clouds than sun.16 mph73%29.92 "HgN/A
3:50 PM70 °FOvercast.16 mph78%29.89 "HgN/A
3:20 PM70 °FMostly cloudy.10 mph73%29.89 "HgN/A
2:50 PM70 °FScattered showers. Broken clouds.10 mph78%29.89 "HgN/A
2:20 PM73 °FScattered showers. Broken clouds.13 mph65%29.89 "HgN/A
1:50 PM75 °FSunny.13 mph57%29.86 "Hg10 mi
1:20 PM77 °FSunny.12 mph54%29.86 "Hg10 mi
Weather by CustomWeather, © 2015

See weather overviewHow to use our weather pages